Regional Weather Roundup
Issued by NWS Goodland, KS

Home | Current Version | Previous Version | Text Only | Print | Product List | Glossary On
Versions: 1 2 3 4 5 6 7 8 9 10 11 12 13 14 15 16 17 18 19 20 21 22 23 24 25 26 27 28 29 30 31 32 33 34 35 36 37 38 39 40 41 42 43 44 45 46 47 48 49 50
000
ASUS43 KGLD 301608
RWRGLD

GOODLAND FORECAST AREA HOURLY WEATHER ROUNDUP
NATIONAL WEATHER SERVICE GOODLAND KS
900 AM MST FRI JAN 30 2015

...OFFICIAL OBSERVATIONS...

CITY           SKY/WX    TMP DP  RH WIND       PRES   REMARKS
GOODLAND KS    CLOUDY    37  27  67 S18       30.28F
HILL CITY KS   CLOUDY    33  25  72 S6        30.41F
IMPERIAL NEB   CLOUDY    33  24  69 SE10      30.27F
MCCOOK NEB     CLOUDY    32  26  78 SE5       30.35F
AKRON CO       CLOUDY    37  27  67 S8        30.19F
BURLINGTON CO  CLOUDY    38  26  62 S20       30.25S
LIMON CO       CLOUDY    33  26  75 SE6       30.23R
$$

...UNOFFICIAL OBSERVATIONS...

CITY           SKY/WX    TMP DP  RH WIND       PRES   REMARKS
COLBY KS       CLOUDY    37  28  70 S14       30.33F
GOVE KS          N/A     36  32  85 MISG        N/A
NORTON KS      SUNNY     34  25  69 S7        30.37F
SHARON SPRINGS   N/A     38  27  65 S16         N/A
KIT CARSON CO    N/A     38  29  69 MISG        N/A
YUMA CO          N/A     33  27  79 CALM        N/A
$$


USA.gov is the U.S. government's official web portal to all federal, state and local government web resources and services.